[[{"header":{"parameterUnit":"m.s-1","parameterCategory":2,"la1":30.2991,"la2":30.254,"lo1":-89.0895,"lo2":-89.0444,"dy":0.0017,"dx":0.0017,"nx":28,"ny":28,"refTime":"2024-06-25T03:00:00:Z","depth":"0","parameterNumber":2,"parameterNumberName":"U-component_of_CURRENTS"},"data":[0,0,0,0,0,0,0,0,0,0,0,0,0,0,0,0,0,0,0,0,0,0,0,0,0,0,0,0,0,0,0,0,0,0,0,0,0,0,0,0,0,0,0,0,0,0,0,0,0,0,0,0,0,0,0,0,0,0,0.4986,0.4988,0,0.5204,0.5206,0.5208,0.5284,0.5284,0.5283,0.5283,0.5552,0.5559,0.5566,0,0,0,0,0,0,0,0,0,0,0,0,0,0.4691,0.4695,0.4985,0.4989,0.4992,0.5204,0.5206,0.5208,0.5284,0.5284,0.5283,0.5283,0.5549,0.5558,0.5567,0,0,0,0,0,0,0,0,0,0,0,0,0,0.4848,0.4696,0.4985,0.506,0.507,0.5203,0.5206,0.5209,0.5284,0.5284,0.5283,0.5283,0.5546,0.5557,0.5568,0.5643,0,0,0.5602,0.5606,0,0,0,0,0,0,0,0,0.4839,0.4858,0.5046,0.5055,0.5066,0.5222,0.5201,0.5359,0.5284,0.5195,0.5283,0.5283,0.5451,0.547,0.5501,0.5655,0.5667,0.5603,0.5609,0.5614,0.5617,0,0,0,0,0,0,0,0.4828,0.485,0.5065,0.505,0.5062,0.5103,0.5124,0.5231,0.5318,0.5203,0.5211,0.5246,0.5456,0.549,0.5508,0.5671,0.5602,0.5612,0.5619,0.5623,0.5967,0.5969,0,0,0,0,0,0,0.4813,0.4839,0.5058,0.5072,0.4957,0.5109,0.5132,0.5167,0.5316,0.534,0.5246,0.5249,0.5472,0.5495,0.5518,0.5697,0.5614,0.5624,0.5631,0.5964,0.5967,0.597,0,0,0,0,0,0,0.4806,0.483,0.505,0.4966,0.4997,0.5115,0.5153,0.5172,0.5215,0.5349,0.5373,0.5272,0.5472,0.5503,0.5651,0.5705,0.5629,0.5639,0.5961,0.5965,0.5969,0.6003,0,0,0,0,0,0,0.4796,0.4826,0.484,0.4965,0.5002,0.5135,0.5155,0.5176,0.524,0.5246,0.538,0.5404,0.5474,0.5634,0.5662,0.5719,0.5648,0.5958,0.5963,0.5967,0.5999,0.6007,0.6015,0,0,0,0,0,0.4785,0.4813,0.4839,0.4866,0.5019,0.5137,0.5159,0.5236,0.5242,0.527,0.5379,0.54,0.5682,0.5647,0.5678,0.5739,0.5956,0.5962,0.5967,0.5995,0.6006,0.6015,0,0,0,0,0,0,0.4696,0.4828,0.4859,0.4925,0.5024,0.5152,0.5191,0.5237,0.5341,0.5348,0.5453,0.5487,0.5627,0.5681,0.5638,0.5848,0.5815,0.5827,0.5825,0.5836,0.5844,0.5788,0.5657,0,0,0,0,0,0.4682,0.4733,0.4865,0.4917,0.4965,0.5073,0.5126,0.5183,0.5296,0.5338,0.5435,0.5547,0.5674,0.5751,0.585,0.5985,0.5983,0.6037,0.6045,0.6051,0.6027,0.6058,0.6066,0.5988,0.5988,0.5988,0,0,0.4667,0.4742,0.4774,0.4901,0.4979,0.5083,0.5103,0.5191,0.5287,0.5356,0.5497,0.5576,0.5712,0.5859,0.5925,0.5916,0.6083,0.6059,0.6063,0.6034,0.6065,0.6072,0.6078,0.5992,0.5992,0.5991,0,0,0.4673,0.4724,0.4778,0.4866,0.4991,0.5075,0.51,0.5232,0.5294,0.5446,0.5515,0.5618,0.5817,0.5914,0.5996,0.6108,0.6113,0.6145,0.6164,0.6197,0.6202,0.6207,0.6247,0.6255,0.6163,0.6163,0.6163,0,0.465,0.474,0.4811,0.4899,0.4982,0.5074,0.517,0.5265,0.5427,0.5483,0.5495,0.5743,0.5843,0.6026,0.6068,0.6125,0.6139,0.612,0.6203,0.6208,0.6211,0.6252,0.626,0.6165,0.6165,0.6165,0.6165,0,0.4712,0.4792,0.4833,0.4981,0.5074,0.5164,0.5314,0.5392,0.547,0.5561,0.5712,0.5835,0.5966,0.603,0.6101,0.6199,0.6201,0.6195,0.6166,0.622,0.6261,0.6269,0.6169,0.6168,0.6167,0.6167,0,0,0.4651,0.484,0.4856,0.4936,0.5121,0.5206,0.5359,0.5518,0.5599,0.5723,0.5824,0.602,0.6018,0.6105,0.6181,0.6225,0.6287,0.6224,0.6224,0.6242,0.6364,0.6156,0.6144,0.6292,0.6293,0.6293,0.6393,0,0.4684,0.4834,0.4934,0.5098,0.5196,0.5324,0.5462,0.5606,0.5716,0.5828,0.5931,0.6059,0.6077,0.6132,0.6175,0.6269,0.6303,0.6261,0.6326,0.6328,0.6117,0.6143,0.5808,0.5847,0.64,0.6401,0.6402,0,0.4716,0.4819,0.4967,0.516,0.5213,0.532,0.5508,0.5644,0.5817,0.5897,0.5993,0.6063,0.6188,0.6158,0.6295,0.6267,0.6298,0.6345,0.635,0.6132,0.613,0.5879,0.584,0.5727,0.6413,0.6412,0.6411,0,0.464,0.4841,0.4949,0.5023,0.5257,0.533,0.5453,0.5641,0.5737,0.5916,0.5964,0.6114,0.6169,0.6243,0.6313,0.6319,0.6412,0.6441,0.6283,0.6272,0.598,0.5938,0.5804,0.6478,0.6478,0.6478,0.6477,0,0.4647,0.4736,0.4912,0.4981,0.511,0.5279,0.5403,0.5554,0.5708,0.58,0.5958,0.6018,0.6177,0.6244,0.6318,0.6298,0.6413,0.6263,0.6265,0.5987,0.5946,0.5828,0.5816,0.6481,0.6481,0.648,0.6479,0,0.4586,0.4691,0.4826,0.5028,0.5082,0.5176,0.5358,0.5446,0.56,0.571,0.5759,0.5949,0.6058,0.6178,0.6312,0.6263,0.6115,0.6265,0.5923,0.5877,0.5583,0.5586,0.5265,0.5124,0.6121,0.6116,0.6112,0,0.4576,0.4636,0.4824,0.4885,0.4977,0.5106,0.5199,0.5383,0.5453,0.5648,0.568,0.5819,0.5882,0.5988,0.5951,0.6,0.5933,0.5695,0.5617,0.5482,0.5493,0.5355,0.5255,0.5296,0.5285,0.5277,0.527,0,0.4563,0.4617,0.4723,0.4822,0.4911,0.5007,0.5122,0.514,0.5331,0.5398,0.5484,0.5548,0.5624,0.5485,0.5494,0.5501,0.5377,0.5515,0.5461,0.487,0.4625,0.4518,0.536,0.5193,0.5201,0.5206,0.5211,0.5214,0.4518,0.4568,0.4656,0.4729,0.4819,0.4837,0.4801,0.4893,0.4916,0.4918,0.5159,0.5128,0.5098,0.505,0.5018,0.472,0.484,0.4579,0.4619,0.4514,0.4245,0.4899,0.4667,0.4671,0.4675,0.4678,0.4681,0,0.44,0.4454,0.4551,0.4578,0.456,0.4661,0.4684,0.4572,0.4456,0.46,0.461,0.4498,0.4325,0.4322,0.4058,0.3865,0.3734,0.3783,0.3552,0.3526,0.4174,0.4002,0.3503,0.3503,0.3503,0.3503,0.3503,0.3503,0.4328,0.4327,0.4358,0.4249,0.4264,0.4116,0.4046,0.394,0.3953,0.3804,0.3718,0.3763,0.3826,0.3659,0.3413,0.333,0.3163,0.2895,0.3057,0.3571,0.365,0.3726,0.356,0.2976,0.2975,0.2189,0.2183,0.2179]},{"header":{"parameterUnit":"m.s-1","parameterCategory":2,"la1":30.2991,"la2":30.254,"lo1":-89.0895,"lo2":-89.0444,"dy":0.0017,"dx":0.0017,"nx":28,"ny":28,"refTime":"2024-06-25T03:00:00:Z","depth":"0","parameterNumber":3,"parameterNumberName":"V-component_of_CURRENTS"},"data":[0,0,0,0,0,0,0,0,0,0,0,0,0,0,0,0,0,0,0,0,0,0,0,0,0,0,0,0,0,0,0,0,0,0,0,0,0,0,0,0,0,0,0,0,0,0,0,0,0,0,0,0,0,0,0,0,0,0,-0.0242,-0.0244,0,-0.0403,-0.0405,-0.0407,-0.0499,-0.0499,-0.0499,-0.0499,-0.0777,-0.0784,-0.0791,0,0,0,0,0,0,0,0,0,0,0,0,0,-0.0109,-0.0111,-0.0242,-0.0244,-0.0246,-0.0403,-0.0405,-0.0408,-0.0499,-0.0499,-0.0499,-0.0499,-0.0774,-0.0783,-0.0792,0,0,0,0,0,0,0,0,0,0,0,0,0,-0.0211,-0.0111,-0.0242,-0.0308,-0.0315,-0.0402,-0.0405,-0.0408,-0.0499,-0.0499,-0.0499,-0.0499,-0.0771,-0.0782,-0.0793,-0.086,0,0,-0.0827,-0.0831,0,0,0,0,0,0,0,0,-0.0205,-0.0216,-0.0296,-0.0303,-0.0311,-0.0428,-0.046,-0.0564,-0.0499,-0.0432,-0.0499,-0.0499,-0.0669,-0.0688,-0.0721,-0.0873,-0.0885,-0.0828,-0.0834,-0.0839,-0.0842,0,0,0,0,0,0,0,-0.0197,-0.021,-0.0309,-0.0298,-0.0307,-0.0361,-0.0375,-0.048,-0.0553,-0.0438,-0.0444,-0.0457,-0.0674,-0.071,-0.0729,-0.0889,-0.0827,-0.0837,-0.0844,-0.0848,-0.1135,-0.1136,0,0,0,0,0,0,-0.0166,-0.0203,-0.0304,-0.0314,-0.0253,-0.0363,-0.0379,-0.0393,-0.055,-0.0572,-0.0457,-0.0461,-0.0691,-0.0716,-0.0739,-0.0834,-0.0839,-0.0849,-0.0856,-0.1134,-0.1135,-0.1136,0,0,0,0,0,0,-0.0163,-0.0174,-0.0298,-0.0259,-0.0278,-0.0364,-0.038,-0.0396,-0.0419,-0.0562,-0.0587,-0.046,-0.0692,-0.0723,-0.0837,-0.0846,-0.0854,-0.0864,-0.1133,-0.1134,-0.1136,-0.1022,0,0,0,0,0,0,-0.0158,-0.0172,-0.0169,-0.0257,-0.0279,-0.0324,-0.038,-0.0399,-0.0426,-0.0432,-0.0574,-0.06,-0.0695,-0.082,-0.0848,-0.0861,-0.0873,-0.1132,-0.1134,-0.1135,-0.1024,-0.1019,-0.1015,0,0,0,0,0,-0.0153,-0.0145,-0.0168,-0.018,-0.0274,-0.0323,-0.0338,-0.0403,-0.0425,-0.0425,-0.054,-0.0595,-0.0851,-0.083,-0.0863,-0.0879,-0.1131,-0.1133,-0.1135,-0.1026,-0.102,-0.1015,0,0,0,0,0,0,-0.0087,-0.0157,-0.0183,-0.0197,-0.0243,-0.0336,-0.0346,-0.0386,-0.0474,-0.0488,-0.0617,-0.0653,-0.0752,-0.0834,-0.0807,-0.0968,-0.0997,-0.1006,-0.0903,-0.0898,-0.0894,-0.0815,-0.0882,0,0,0,0,0,-0.0069,-0.0081,-0.0152,-0.016,-0.0179,-0.0257,-0.0284,-0.0326,-0.0414,-0.045,-0.0554,-0.0675,-0.079,-0.0854,-0.0961,-0.1055,-0.1034,-0.1085,-0.108,-0.1075,-0.1035,-0.102,-0.1007,-0.1144,-0.1144,-0.1144,0,0,-0.0049,-0.0084,-0.0094,-0.0146,-0.0191,-0.0227,-0.0273,-0.0303,-0.035,-0.0472,-0.0566,-0.066,-0.081,-0.0914,-0.0965,-0.0983,-0.1022,-0.1078,-0.1072,-0.1034,-0.102,-0.1006,-0.0994,-0.1145,-0.1145,-0.1145,0,0,-0.0007,-0.004,-0.0035,-0.0072,-0.0123,-0.0184,-0.0181,-0.0266,-0.0316,-0.0413,-0.0515,-0.0596,-0.0783,-0.0873,-0.0951,-0.0982,-0.0991,-0.1031,-0.0954,-0.094,-0.0927,-0.0915,-0.0831,-0.0813,-0.1035,-0.1035,-0.1035,0,0.0025,0.0011,-0.0039,-0.0049,-0.0078,-0.0157,-0.0168,-0.0241,-0.0356,-0.0382,-0.0428,-0.063,-0.0758,-0.0861,-0.0888,-0.0966,-0.0932,-0.0961,-0.0926,-0.0914,-0.0904,-0.0822,-0.0803,-0.103,-0.103,-0.1031,-0.1031,0,0.0059,0.0045,0.0047,-0.0003,-0.0039,-0.0056,-0.0156,-0.0197,-0.0265,-0.0328,-0.0412,-0.0561,-0.0657,-0.0733,-0.0838,-0.0846,-0.0833,-0.0908,-0.0919,-0.0881,-0.0799,-0.0781,-0.1022,-0.1024,-0.1026,-0.1027,0,0,0.0135,0.0082,0.0081,0.0074,-0.0014,-0.0034,-0.0106,-0.0171,-0.0169,-0.0289,-0.0277,-0.0491,-0.0505,-0.0591,-0.0703,-0.0719,-0.0636,-0.0778,-0.078,-0.0654,-0.0533,-0.0502,-0.048,-0.0699,-0.0697,-0.0695,-0.0487,0,0.0178,0.018,0.0129,0.0115,0.0105,0.002,-0.0025,-0.0093,-0.0151,-0.0161,-0.0281,-0.0324,-0.0477,-0.0486,-0.0531,-0.0606,-0.059,-0.068,-0.0623,-0.0619,-0.0565,-0.046,-0.0454,-0.0268,-0.047,-0.0467,-0.0465,0,0.0226,0.022,0.0224,0.0193,0.0185,0.0166,0.0134,0.0089,0.0039,0.0012,-0.0026,-0.01,-0.015,-0.0272,-0.0321,-0.0365,-0.0425,-0.0482,-0.0477,-0.0469,-0.0556,-0.0353,-0.0228,-0.0392,-0.0438,-0.044,-0.0442,0,0.0311,0.0286,0.0299,0.0281,0.0229,0.0235,0.0211,0.0164,0.0181,0.0169,0.023,0.0132,0.0151,0.0042,-0.0095,-0.0188,-0.01,-0.0248,-0.0261,-0.0257,-0.0248,-0.0248,-0.0241,-0.0244,-0.0244,-0.0245,-0.0245,0,0.0372,0.0384,0.0354,0.0361,0.0409,0.0342,0.0412,0.0376,0.0408,0.0493,0.0363,0.0444,0.0233,0.0226,0.0052,0.0005,0.0028,-0.0179,-0.0193,-0.0208,-0.0208,-0.0353,-0.0472,-0.0237,-0.0239,-0.024,-0.0242,0,0.0463,0.0431,0.0462,0.0445,0.0453,0.0499,0.0556,0.0626,0.0633,0.0763,0.0787,0.0745,0.0745,0.0563,0.0443,0.025,0.0085,0.012,0.0157,0.0141,-0.0081,-0.0193,-0.015,-0.021,0.0154,0.0156,0.0158,0,0.051,0.0535,0.0554,0.0606,0.0612,0.0677,0.0742,0.0743,0.0837,0.0956,0.1052,0.1094,0.1135,0.1008,0.0704,0.051,0.0258,0.0345,0.0122,-0.0021,-0.0158,-0.0257,-0.032,0.0202,0.0204,0.0206,0.0207,0,0.062,0.0631,0.0666,0.0765,0.0844,0.0924,0.1021,0.1124,0.1172,0.1298,0.1466,0.1523,0.1411,0.1214,0.093,0.0731,0.0234,0.0371,0.0197,-0.0108,-0.0186,-0.0275,0.0034,0.0222,0.0221,0.0219,0.0219,0.0218,0.0732,0.0785,0.0845,0.0945,0.1038,0.116,0.1247,0.138,0.1547,0.1732,0.1776,0.192,0.1601,0.1215,0.0946,0.0431,0.0377,0.019,0.0084,0.0012,-0.0108,0.0279,0.0436,0.0436,0.0436,0.0435,0.0435,0,0.0877,0.0919,0.1022,0.1132,0.1256,0.1258,0.1425,0.1521,0.1731,0.1961,0.2109,0.2084,0.1694,0.1241,0.0544,0.0172,-0.0006,-0.0034,-0.0211,-0.0255,0.0084,0.0016,0.0119,0.0119,0.0119,0.012,0.012,0.012,0.0955,0.1069,0.11,0.1302,0.1379,0.1514,0.1598,0.1745,0.1921,0.2176,0.2314,0.2389,0.2057,0.084,0.0021,-0.0169,-0.0442,-0.0472,-0.0598,-0.0442,-0.0432,-0.0423,-0.0515,-0.0525,-0.0526,-0.0915,-0.0919,-0.0922]}],[{"header":{"parameterUnit":"m.s-1","parameterCategory":2,"la1":30.2991,"la2":30.254,"lo1":-89.0895,"lo2":-89.0444,"dy":0.0017,"dx":0.0017,"nx":28,"ny":28,"refTime":"2024-06-25T03:00:00:Z","depth":"2","parameterNumber":2,"parameterNumberName":"U-component_of_CURRENTS"},"data":[0,0,0,0,0,0,0,0,0,0,0,0,0,0,0,0,0,0,0,0,0,0,0,0,0,0,0,0,0,0,0,0,0,0,0,0,0,0,0,0,0,0,0,0,0,0,0,0,0,0,0,0,0,0,0,0,0,0,0.3349,0.335,0,0.3378,0.3378,0.3378,0.3384,0.3384,0.3384,0.3384,0.3328,0.3327,0.3325,0,0,0,0,0,0,0,0,0,0,0,0,0,0.3305,0.3306,0.3349,0.335,0.335,0.3378,0.3378,0.3378,0.3384,0.3384,0.3384,0.3384,0.3329,0.3327,0.3325,0,0,0,0,0,0,0,0,0,0,0,0,0,0.3324,0.3306,0.3349,0.3359,0.3361,0.3378,0.3378,0.3378,0.3384,0.3384,0.3384,0.3384,0.3329,0.3327,0.3325,0.3306,0,0,0.3317,0.3316,0,0,0,0,0,0,0,0,0.3323,0.3326,0.3357,0.3359,0.3361,0.3381,0.3342,0.3351,0.3384,0.3371,0.3384,0.3384,0.334,0.3337,0.3338,0.3303,0.3301,0.3317,0.3316,0.3314,0.3314,0,0,0,0,0,0,0,0.3322,0.3324,0.3356,0.3358,0.336,0.3365,0.3368,0.3344,0.3349,0.3372,0.3373,0.3383,0.334,0.334,0.3336,0.33,0.3317,0.3315,0.3313,0.3312,0.3339,0.3341,0,0,0,0,0,0,0.3326,0.3323,0.3356,0.3358,0.3346,0.3366,0.3369,0.3371,0.3352,0.3351,0.3383,0.3383,0.3344,0.3339,0.3334,0.3414,0.3315,0.3312,0.3311,0.3337,0.334,0.3342,0,0,0,0,0,0,0.3325,0.3328,0.3354,0.3345,0.3349,0.3367,0.3369,0.3371,0.3413,0.3361,0.3358,0.3427,0.3344,0.3338,0.3314,0.3408,0.3311,0.3309,0.3334,0.3338,0.3341,0.3507,0,0,0,0,0,0,0.3323,0.3327,0.3348,0.3345,0.335,0.3407,0.337,0.3372,0.3418,0.3419,0.3397,0.339,0.3344,0.3318,0.3312,0.3403,0.3307,0.3332,0.3336,0.334,0.3499,0.3515,0.353,0,0,0,0,0,0.3321,0.3352,0.3348,0.3354,0.3371,0.3409,0.3414,0.3423,0.342,0.3457,0.3406,0.3393,0.3341,0.3315,0.3308,0.3402,0.333,0.3335,0.3339,0.3492,0.3512,0.3529,0,0,0,0,0,0,0.3334,0.3355,0.3351,0.3384,0.3413,0.3413,0.3442,0.3454,0.3448,0.3435,0.3389,0.3378,0.3409,0.3365,0.3339,0.342,0.3348,0.3351,0.3466,0.3485,0.35,0.3528,0.3305,0,0,0,0,0,0.3347,0.3376,0.3396,0.3421,0.3438,0.3448,0.347,0.3476,0.3464,0.3466,0.3444,0.3417,0.3419,0.3416,0.3397,0.3419,0.341,0.3483,0.3498,0.3512,0.3529,0.36,0.3625,0.3358,0.3358,0.3358,0,0,0.3357,0.3371,0.3388,0.3427,0.3437,0.346,0.3462,0.3501,0.3523,0.3455,0.3469,0.3468,0.3434,0.3465,0.3479,0.3442,0.3578,0.3518,0.353,0.354,0.3608,0.3634,0.3658,0.3361,0.3361,0.336,0,0,0.3367,0.3403,0.3422,0.3445,0.3478,0.3497,0.3524,0.3545,0.3568,0.3579,0.3552,0.3587,0.3569,0.3577,0.3576,0.3661,0.366,0.369,0.3793,0.3863,0.3886,0.3906,0.3913,0.3932,0.3697,0.3698,0.3698,0,0.3372,0.3403,0.3438,0.3446,0.3472,0.352,0.3541,0.3572,0.3583,0.3603,0.3599,0.3654,0.3624,0.37,0.3737,0.3703,0.3728,0.3728,0.3887,0.3907,0.3925,0.3926,0.3946,0.3706,0.3705,0.3704,0.3704,0,0.3379,0.3413,0.3429,0.3458,0.3489,0.3534,0.3568,0.3613,0.3655,0.368,0.3782,0.3783,0.3816,0.3853,0.3817,0.3962,0.3931,0.3903,0.3847,0.3963,0.3955,0.3973,0.3719,0.3716,0.3713,0.3711,0,0,0.3356,0.343,0.3428,0.3449,0.351,0.3528,0.3584,0.3659,0.3732,0.3785,0.3884,0.3941,0.3992,0.3996,0.402,0.4106,0.4241,0.4083,0.4082,0.4101,0.4384,0.4192,0.4191,0.4273,0.4277,0.4281,0.4322,0,0.3358,0.3388,0.3431,0.3469,0.3497,0.3558,0.3616,0.3672,0.3772,0.3875,0.395,0.4054,0.4036,0.4118,0.4193,0.4241,0.4301,0.4231,0.4257,0.4256,0.4084,0.421,0.3884,0.3881,0.4338,0.4341,0.4343,0,0.3345,0.3372,0.3417,0.3497,0.3516,0.3558,0.3687,0.3749,0.3891,0.3983,0.4115,0.4175,0.4307,0.4292,0.443,0.4403,0.4403,0.4435,0.4436,0.4214,0.4098,0.3841,0.3895,0.4372,0.4369,0.4367,0.4365,0,0.33,0.3363,0.3414,0.3431,0.3524,0.3571,0.3645,0.378,0.3857,0.4086,0.4171,0.434,0.4408,0.451,0.4523,0.4514,0.4659,0.4622,0.444,0.4423,0.4123,0.4072,0.4713,0.4713,0.4713,0.4713,0.4712,0,0.3299,0.332,0.3408,0.3423,0.3513,0.356,0.3711,0.382,0.3975,0.4071,0.4233,0.4345,0.4478,0.4539,0.4582,0.4551,0.468,0.4483,0.4444,0.4164,0.4119,0.4519,0.4496,0.4714,0.4714,0.4713,0.4713,0,0.324,0.3303,0.3345,0.3445,0.3502,0.3549,0.3722,0.3814,0.3983,0.412,0.4185,0.4336,0.4427,0.45,0.4626,0.4555,0.4604,0.4543,0.4172,0.4088,0.4306,0.4291,0.4373,0.4367,0.4362,0.4358,0.4354,0,0.3206,0.3243,0.3348,0.3384,0.3447,0.3561,0.3654,0.383,0.3908,0.4102,0.4122,0.424,0.4265,0.4346,0.4328,0.4335,0.4458,0.3997,0.3906,0.4329,0.4284,0.4277,0.4269,0.3569,0.3559,0.3552,0.3545,0,0.3166,0.3223,0.3296,0.3337,0.3426,0.3521,0.364,0.367,0.384,0.3896,0.3928,0.3959,0.4027,0.3866,0.3866,0.3847,0.3984,0.3829,0.4416,0.369,0.357,0.3525,0.3545,0.3475,0.3482,0.3487,0.3491,0.3494,0.3157,0.3183,0.3257,0.3291,0.3372,0.3372,0.3375,0.3443,0.3457,0.3426,0.3608,0.3531,0.3584,0.3392,0.3308,0.3259,0.3531,0.3388,0.3414,0.3448,0.3333,0.321,0.3022,0.3026,0.303,0.3033,0.3036,0,0.3091,0.3118,0.3166,0.3166,0.3133,0.3236,0.3266,0.3174,0.3043,0.3115,0.3073,0.2819,0.2711,0.2792,0.2599,0.2591,0.26,0.2488,0.248,0.2552,0.2615,0.2458,0.1915,0.1912,0.1908,0.1905,0,0,0.3039,0.3033,0.3031,0.2905,0.2895,0.2781,0.2738,0.2627,0.2595,0.2421,0.2362,0.2561,0.2683,0.2251,0.2205,0.2018,0.2268,0.194,0.2844,0.2905,0.2963,0.3143,0.2982,0,0,0,0,0]},{"header":{"parameterUnit":"m.s-1","parameterCategory":2,"la1":30.2991,"la2":30.254,"lo1":-89.0895,"lo2":-89.0444,"dy":0.0017,"dx":0.0017,"nx":28,"ny":28,"refTime":"2024-06-25T03:00:00:Z","depth":"2","parameterNumber":3,"parameterNumberName":"V-component_of_CURRENTS"},"data":[0,0,0,0,0,0,0,0,0,0,0,0,0,0,0,0,0,0,0,0,0,0,0,0,0,0,0,0,0,0,0,0,0,0,0,0,0,0,0,0,0,0,0,0,0,0,0,0,0,0,0,0,0,0,0,0,0,0,0.018,0.018,0,0.016,0.0159,0.0159,0.0136,0.0136,0.0135,0.0135,0.0149,0.015,0.015,0,0,0,0,0,0,0,0,0,0,0,0,0,0.0176,0.0176,0.018,0.018,0.0179,0.016,0.0159,0.0159,0.0136,0.0136,0.0135,0.0134,0.0148,0.0149,0.015,0,0,0,0,0,0,0,0,0,0,0,0,0,0.017,0.0176,0.018,0.0164,0.0163,0.016,0.0159,0.0159,0.0136,0.0135,0.0135,0.0134,0.0148,0.0149,0.0151,0.0172,0,0,0.0154,0.0155,0,0,0,0,0,0,0,0,0.017,0.017,0.0167,0.0165,0.0164,0.0148,0.0163,0.0165,0.0136,0.0148,0.0135,0.0134,0.0152,0.0152,0.0151,0.0172,0.0173,0.0154,0.0155,0.0156,0.0156,0,0,0,0,0,0,0,0.0171,0.0171,0.0173,0.0167,0.0165,0.015,0.0149,0.0163,0.0155,0.0147,0.0145,0.014,0.0151,0.015,0.0152,0.0173,0.0154,0.0155,0.0156,0.0157,0.0231,0.0232,0,0,0,0,0,0,0.0173,0.0172,0.0174,0.0172,0.0164,0.0151,0.015,0.0155,0.0154,0.0153,0.0141,0.0139,0.0149,0.015,0.0152,0.0202,0.0156,0.0157,0.0157,0.023,0.0231,0.0232,0,0,0,0,0,0,0.0173,0.0174,0.0175,0.017,0.0169,0.0152,0.0158,0.0155,0.0146,0.015,0.0149,0.0134,0.0148,0.015,0.0181,0.0202,0.0157,0.0158,0.0228,0.023,0.0232,0.0287,0,0,0,0,0,0,0.0173,0.0174,0.018,0.017,0.0169,0.0181,0.0158,0.0155,0.0144,0.0142,0.0144,0.0145,0.0148,0.018,0.0183,0.0203,0.0159,0.0226,0.0229,0.0231,0.0284,0.0291,0.0297,0,0,0,0,0,0.0173,0.0189,0.0181,0.0181,0.0178,0.0181,0.018,0.0166,0.0145,0.0152,0.0161,0.0144,0.0196,0.0182,0.0185,0.0206,0.0225,0.0228,0.0231,0.0281,0.0289,0.0296,0,0,0,0,0,0,0.0195,0.0188,0.0178,0.0192,0.0188,0.0177,0.0185,0.0164,0.0173,0.0176,0.0166,0.017,0.0202,0.0198,0.0183,0.0234,0.0205,0.0209,0.0242,0.025,0.0256,0.0294,0.016,0,0,0,0,0,0.0201,0.0211,0.0199,0.0213,0.0213,0.0195,0.0192,0.0184,0.0188,0.0189,0.0185,0.0194,0.0217,0.0228,0.0244,0.0276,0.0247,0.0289,0.0295,0.0301,0.0334,0.0288,0.0293,0.0242,0.0242,0.0242,0,0,0.0211,0.0211,0.0215,0.0218,0.0216,0.024,0.0193,0.0201,0.0226,0.0193,0.0225,0.0216,0.023,0.0269,0.0282,0.0269,0.0299,0.0304,0.0309,0.034,0.0292,0.0296,0.0301,0.0244,0.0243,0.0243,0,0,0.0246,0.0241,0.0262,0.0269,0.0271,0.027,0.027,0.0258,0.0258,0.0282,0.0271,0.0285,0.0297,0.0325,0.0339,0.0392,0.0332,0.0376,0.0444,0.0399,0.0402,0.0405,0.0362,0.0361,0.0382,0.0382,0.0382,0,0.026,0.0289,0.0269,0.0299,0.0321,0.0287,0.0327,0.0329,0.0327,0.0352,0.0303,0.0339,0.0336,0.0409,0.0424,0.041,0.0362,0.0412,0.0406,0.0408,0.041,0.0366,0.0363,0.0385,0.0384,0.0384,0.0384,0,0.0314,0.0341,0.0359,0.0394,0.0413,0.0442,0.0448,0.0469,0.045,0.0448,0.0484,0.0463,0.0488,0.0476,0.0469,0.0498,0.0451,0.0412,0.0383,0.0418,0.0369,0.0366,0.0389,0.0388,0.0387,0.0386,0,0,0.0349,0.0388,0.0398,0.0439,0.0469,0.05,0.0559,0.061,0.0659,0.0624,0.0674,0.0682,0.0638,0.0652,0.062,0.0585,0.0544,0.0506,0.0502,0.046,0.0428,0.0388,0.038,0.0479,0.0479,0.0479,0.0382,0,0.0403,0.0479,0.0486,0.0581,0.0629,0.0645,0.071,0.0754,0.0759,0.0795,0.0767,0.079,0.0712,0.0711,0.0664,0.0586,0.054,0.0574,0.0405,0.0402,0.0358,0.0378,0.0405,0.0321,0.0379,0.0378,0.0378,0,0.0465,0.0513,0.0603,0.07,0.0724,0.0775,0.089,0.0938,0.0988,0.0989,0.0989,0.0942,0.0929,0.0823,0.0696,0.0708,0.0583,0.0498,0.049,0.0442,0.0357,0.0298,0.0312,0.0372,0.0372,0.0373,0.0373,0,0.0521,0.0607,0.0687,0.0717,0.081,0.0872,0.0926,0.1,0.1071,0.1103,0.1131,0.1081,0.1053,0.0901,0.0718,0.0694,0.0546,0.0487,0.0339,0.0334,0.0327,0.0322,0.0386,0.0387,0.0387,0.0387,0.0387,0,0.0591,0.0662,0.0719,0.0768,0.0896,0.0934,0.1062,0.1116,0.1194,0.1286,0.1218,0.1248,0.106,0.0949,0.0762,0.0548,0.057,0.0371,0.0314,0.0346,0.0343,0.0368,0.0367,0.0383,0.0384,0.0385,0.0386,0,0.065,0.0679,0.0784,0.0881,0.0923,0.1017,0.1154,0.125,0.1295,0.1407,0.1421,0.1377,0.1225,0.1025,0.0788,0.0615,0.0415,0.0326,0.0381,0.0333,0.022,0.0224,0.0161,0.0159,0.0158,0.0156,0.0155,0,0.069,0.0744,0.0861,0.0944,0.0992,0.1119,0.1223,0.1305,0.1399,0.1483,0.1542,0.1445,0.1383,0.1032,0.0733,0.0423,0.0379,0.0232,0.0203,0.025,0.0201,0.0207,0.0212,0.0205,0.0204,0.0203,0.0203,0,0.0776,0.0805,0.0891,0.104,0.1155,0.1282,0.1412,0.1499,0.1596,0.1661,0.1704,0.166,0.1365,0.1064,0.0662,0.0451,0.0288,0.0208,0.0246,0.026,0.0284,0.0237,0.0243,0.0198,0.0198,0.0199,0.0199,0.0199,0.0847,0.0914,0.1012,0.1158,0.1285,0.1412,0.1501,0.1618,0.1735,0.1807,0.1788,0.1704,0.1432,0.0898,0.0569,0.0227,0.0242,0.0105,0.011,0.0115,0.014,0.016,0.0055,0.0055,0.0055,0.0055,0.0054,0,0.0935,0.0998,0.1132,0.1277,0.1394,0.1451,0.1614,0.1671,0.1763,0.1833,0.183,0.1536,0.1238,0.0909,0.0411,0.0116,0.0106,0.0006,0.0068,0.0076,0.0082,0.0107,0.0012,0.0011,0.001,0.0009,0,0,0.0986,0.1103,0.1149,0.1326,0.1426,0.1548,0.1621,0.1699,0.1759,0.1756,0.1719,0.1678,0.1326,0.0952,0.0572,0.0287,0.0238,0.0221,0.0288,0.0414,0.0423,0.0174,0.0225,0,0,0,0,0]}],[{"header":{"parameterUnit":"m.s-1","parameterCategory":2,"la1":30.2991,"la2":30.254,"lo1":-89.0895,"lo2":-89.0444,"dy":0.0017,"dx":0.0017,"nx":28,"ny":28,"refTime":"2024-06-25T03:00:00:Z","depth":"4","parameterNumber":2,"parameterNumberName":"U-component_of_CURRENTS"},"data":[0,0,0,0,0,0,0,0,0,0,0,0,0,0,0,0,0,0,0,0,0,0,0,0,0,0,0,0,0,0,0,0,0,0,0,0,0,0,0,0,0,0,0,0,0,0,0,0,0,0,0,0,0,0,0,0,0,0,0.1759,0.1759,0,0.175,0.175,0.175,0.1763,0.1764,0.1764,0.1764,0.1707,0.1705,0.1703,0,0,0,0,0,0,0,0,0,0,0,0,0,0.179,0.1789,0.1759,0.1759,0.1759,0.175,0.175,0.175,0.1763,0.1764,0.1764,0.1764,0.1707,0.1705,0.1703,0,0,0,0,0,0,0,0,0,0,0,0,0,0.1779,0.1789,0.1759,0.1763,0.1763,0.175,0.175,0.175,0.1763,0.1764,0.1764,0.1765,0.1708,0.1705,0.1703,0.1676,0,0,0.1694,0.1693,0,0,0,0,0,0,0,0,0.178,0.1778,0.1763,0.1763,0.1763,0.1757,0.1739,0.1722,0.1763,0.1765,0.1764,0.1765,0.1718,0.1714,0.1714,0.1673,0.1671,0.1694,0.1692,0.1691,0.169,0,0,0,0,0,0,0,0.1781,0.1779,0.1757,0.1762,0.1762,0.1766,0.1765,0.1737,0.1739,0.1765,0.1765,0.1762,0.1718,0.1717,0.1713,0.167,0.1694,0.1692,0.169,0.1689,0.1732,0.1735,0,0,0,0,0,0,0.1778,0.1779,0.1757,0.1757,0.1771,0.1764,0.1764,0.176,0.174,0.1738,0.1761,0.1762,0.1721,0.1716,0.1711,0.1754,0.1691,0.1689,0.1687,0.1729,0.1733,0.1736,0,0,0,0,0,0,0.1779,0.1776,0.1758,0.1767,0.1764,0.1763,0.1759,0.1759,0.1791,0.1738,0.1735,0.1796,0.1722,0.1715,0.1715,0.1749,0.1687,0.1685,0.1726,0.173,0.1734,0.1792,0,0,0,0,0,0,0.178,0.1776,0.1792,0.1766,0.1764,0.1767,0.1758,0.1758,0.1785,0.1788,0.1766,0.1759,0.1721,0.172,0.1712,0.1744,0.1683,0.1722,0.1728,0.1733,0.1786,0.1797,0.1807,0,0,0,0,0,0.1781,0.1778,0.1793,0.1791,0.1779,0.1767,0.1767,0.1769,0.1787,0.1801,0.1794,0.1762,0.1749,0.1718,0.1709,0.1742,0.172,0.1726,0.1733,0.1782,0.1795,0.1807,0,0,0,0,0,0,0.1794,0.1778,0.1794,0.1788,0.1794,0.1769,0.1782,0.1792,0.1801,0.1817,0.1775,0.1767,0.1786,0.1765,0.1733,0.1778,0.1739,0.1743,0.178,0.1792,0.1802,0.1826,0.168,0,0,0,0,0,0.1807,0.1809,0.1799,0.1803,0.1808,0.1811,0.1816,0.1824,0.1817,0.1825,0.1813,0.1811,0.1801,0.1797,0.1786,0.1794,0.1815,0.1822,0.1832,0.1841,0.1861,0.1951,0.1971,0.1756,0.1756,0.1756,0,0,0.1809,0.1808,0.1807,0.1809,0.1815,0.181,0.1816,0.1835,0.1843,0.1814,0.1837,0.1841,0.1814,0.1828,0.1837,0.1814,0.1909,0.1849,0.1856,0.1871,0.196,0.198,0.1999,0.1761,0.176,0.1759,0,0,0.1805,0.1823,0.1823,0.1828,0.1848,0.1842,0.1858,0.1868,0.1891,0.1909,0.19,0.1937,0.1913,0.1914,0.1903,0.197,0.1962,0.1975,0.2036,0.2124,0.2142,0.2158,0.2186,0.2204,0.1978,0.1978,0.1979,0,0.1816,0.1814,0.1824,0.1826,0.1835,0.1859,0.1866,0.1876,0.1892,0.1925,0.1929,0.1979,0.1956,0.1983,0.2009,0.1991,0.2027,0.1979,0.2136,0.2153,0.2169,0.2194,0.2213,0.1982,0.1982,0.1981,0.1981,0,0.1805,0.1816,0.1818,0.1827,0.1839,0.1853,0.1865,0.1903,0.1945,0.1968,0.2046,0.2051,0.2094,0.2092,0.2059,0.2161,0.2144,0.2137,0.2099,0.2194,0.2213,0.2233,0.1987,0.1986,0.1985,0.1984,0,0,0.1795,0.1808,0.1815,0.1829,0.1851,0.1855,0.1885,0.1925,0.1978,0.2031,0.2115,0.2131,0.2196,0.2195,0.2195,0.226,0.2381,0.2254,0.2257,0.2269,0.2551,0.2367,0.2369,0.2414,0.2418,0.2421,0.2509,0,0.1795,0.1798,0.1811,0.1824,0.1825,0.1867,0.1893,0.1943,0.2006,0.2092,0.2157,0.2232,0.2213,0.2272,0.2339,0.2379,0.2441,0.2356,0.2468,0.247,0.2287,0.2389,0.2436,0.2524,0.2528,0.2531,0.2533,0,0.1777,0.1787,0.1803,0.1839,0.1851,0.1874,0.1961,0.1996,0.2105,0.2171,0.2282,0.2338,0.2447,0.2433,0.2571,0.2525,0.2556,0.2576,0.258,0.2406,0.2323,0.2419,0.2568,0.2565,0.2563,0.256,0.2558,0,0.1752,0.1778,0.1801,0.1809,0.1851,0.1901,0.1949,0.2043,0.2114,0.226,0.2347,0.2468,0.257,0.2648,0.2689,0.2662,0.2826,0.2789,0.2644,0.2629,0.2739,0.2721,0.2906,0.2906,0.2905,0.2905,0.2905,0,0.1718,0.1737,0.1805,0.1811,0.1871,0.1919,0.2017,0.2081,0.2224,0.2312,0.2421,0.2511,0.2644,0.2734,0.275,0.275,0.2886,0.2676,0.2658,0.2756,0.2739,0.275,0.2731,0.2908,0.2908,0.2907,0.2907,0,0.165,0.1704,0.1729,0.1809,0.1854,0.1904,0.205,0.2114,0.2261,0.2392,0.2456,0.2606,0.2709,0.2785,0.2901,0.2814,0.2833,0.2795,0.2878,0.286,0.2557,0.254,0.2649,0.2644,0.2639,0.2636,0.2632,0,0.16,0.1608,0.1712,0.1762,0.1809,0.1907,0.1972,0.2122,0.2202,0.2412,0.2467,0.2631,0.27,0.2702,0.2794,0.2811,0.2775,0.2746,0.2664,0.2569,0.2541,0.2531,0.2521,0.2625,0.2624,0.2623,0.2622,0,0.1502,0.1565,0.1587,0.1691,0.178,0.1836,0.1956,0.2009,0.2178,0.2344,0.2412,0.2453,0.2554,0.2601,0.2632,0.2636,0.2744,0.2698,0.2706,0.2629,0.2541,0.2516,0.2511,0.2606,0.2608,0.261,0.2611,0,0.1442,0.1436,0.1513,0.1591,0.1696,0.1734,0.1798,0.1884,0.1982,0.2221,0.224,0.2383,0.2533,0.2514,0.2544,0.2534,0.2493,0.2386,0.241,0.2428,0.2313,0.2165,0.2123,0,0,0,0,0,0.1373,0.1368,0.1416,0.1485,0.1579,0.1643,0.1773,0.1842,0.2029,0.2023,0.2127,0.2198,0.2239,0.2318,0.2264,0.2454,0.2504,0.2379,0.2392,0.2519,0.2537,0.242,0,0,0,0,0,0,0.1342,0.1368,0.1372,0.1396,0.1422,0.1497,0.1564,0.1673,0.1685,0.1882,0.1921,0.2063,0.2147,0.2255,0.2225,0.2249,0.2208,0.2485,0.2478,0.2508,0.2525,0.2539,0.2426,0,0,0,0,0]},{"header":{"parameterUnit":"m.s-1","parameterCategory":2,"la1":30.2991,"la2":30.254,"lo1":-89.0895,"lo2":-89.0444,"dy":0.0017,"dx":0.0017,"nx":28,"ny":28,"refTime":"2024-06-25T03:00:00:Z","depth":"4","parameterNumber":3,"parameterNumberName":"V-component_of_CURRENTS"},"data":[0,0,0,0,0,0,0,0,0,0,0,0,0,0,0,0,0,0,0,0,0,0,0,0,0,0,0,0,0,0,0,0,0,0,0,0,0,0,0,0,0,0,0,0,0,0,0,0,0,0,0,0,0,0,0,0,0,0,0.0248,0.0248,0,0.0263,0.0263,0.0264,0.0259,0.0258,0.0258,0.0258,0.0271,0.0272,0.0272,0,0,0,0,0,0,0,0,0,0,0,0,0,0.0212,0.0212,0.0248,0.0249,0.0249,0.0263,0.0263,0.0264,0.0259,0.0258,0.0258,0.0258,0.0271,0.0272,0.0272,0,0,0,0,0,0,0,0,0,0,0,0,0,0.0227,0.0213,0.0248,0.0248,0.0248,0.0263,0.0263,0.0264,0.0259,0.0258,0.0258,0.0258,0.0271,0.0272,0.0272,0.0287,0,0,0.0275,0.0276,0,0,0,0,0,0,0,0,0.0226,0.0228,0.0248,0.0248,0.0248,0.0259,0.0255,0.0272,0.0259,0.0255,0.0258,0.0257,0.0267,0.0269,0.0272,0.0288,0.0288,0.0275,0.0276,0.0276,0.0277,0,0,0,0,0,0,0,0.0225,0.0228,0.0254,0.0248,0.0249,0.0246,0.0248,0.0258,0.0263,0.0255,0.0255,0.0257,0.0267,0.0271,0.0272,0.0289,0.0275,0.0276,0.0277,0.0277,0.0317,0.0317,0,0,0,0,0,0,0.0225,0.0227,0.0254,0.0254,0.0236,0.0247,0.0249,0.0256,0.0263,0.0264,0.0257,0.0257,0.027,0.0271,0.0273,0.0313,0.0276,0.0277,0.0278,0.0316,0.0317,0.0317,0,0,0,0,0,0,0.0224,0.0227,0.0253,0.0241,0.0244,0.0248,0.0256,0.0256,0.0264,0.0265,0.0265,0.0265,0.0269,0.0271,0.0287,0.0312,0.0278,0.0279,0.0316,0.0316,0.0317,0.0379,0,0,0,0,0,0,0.0223,0.0227,0.0237,0.0241,0.0245,0.0268,0.0256,0.0257,0.0266,0.0265,0.0271,0.0272,0.0269,0.0286,0.0288,0.0313,0.0279,0.0315,0.0316,0.0317,0.0376,0.0382,0.0386,0,0,0,0,0,0.0222,0.0239,0.0238,0.0241,0.0257,0.0269,0.0271,0.0272,0.0267,0.0276,0.0278,0.0272,0.0293,0.0287,0.029,0.0316,0.0315,0.0316,0.0317,0.0374,0.0381,0.0386,0,0,0,0,0,0,0.0231,0.024,0.0239,0.0259,0.0265,0.0268,0.0281,0.0277,0.0286,0.0289,0.0282,0.0284,0.0308,0.0298,0.0292,0.0326,0.0301,0.0303,0.0344,0.035,0.0355,0.036,0.028,0,0,0,0,0,0.0238,0.0252,0.0257,0.0273,0.0279,0.028,0.0287,0.0288,0.0293,0.0297,0.0297,0.03,0.0314,0.0321,0.0327,0.0349,0.0307,0.0364,0.0369,0.0373,0.0377,0.0327,0.0328,0.0321,0.0321,0.0321,0,0,0.0246,0.0253,0.0261,0.0276,0.0283,0.0306,0.0284,0.0301,0.0322,0.0298,0.0326,0.0321,0.0323,0.0348,0.0358,0.0345,0.0352,0.0375,0.0379,0.038,0.0328,0.0329,0.0329,0.0322,0.0321,0.0321,0,0,0.027,0.0277,0.0298,0.031,0.0325,0.0329,0.0335,0.0341,0.0346,0.0368,0.0359,0.0364,0.0381,0.0386,0.0392,0.0427,0.0381,0.0429,0.0463,0.0414,0.0414,0.0414,0.0355,0.0348,0.0431,0.0431,0.0431,0,0.0279,0.031,0.0305,0.0332,0.0353,0.0343,0.0377,0.0384,0.0392,0.0398,0.0384,0.04,0.0401,0.0432,0.0446,0.0441,0.0396,0.0444,0.042,0.0419,0.0418,0.0357,0.0349,0.0434,0.0434,0.0434,0.0434,0,0.0319,0.035,0.0366,0.04,0.0418,0.0447,0.0456,0.0469,0.0469,0.0467,0.0485,0.0475,0.0482,0.0484,0.0481,0.0483,0.0448,0.0433,0.0406,0.0422,0.0357,0.0348,0.0439,0.0438,0.0437,0.0436,0,0,0.0333,0.0384,0.0393,0.0426,0.0461,0.0482,0.0519,0.0545,0.0567,0.0557,0.0575,0.0588,0.0563,0.0567,0.0554,0.0516,0.0468,0.0475,0.0471,0.0418,0.0345,0.0335,0.0323,0.0443,0.0442,0.0441,0.0301,0,0.0371,0.0436,0.0452,0.0523,0.0563,0.0574,0.061,0.0629,0.0631,0.064,0.0617,0.0631,0.0602,0.0608,0.0565,0.0499,0.0448,0.0507,0.0336,0.0331,0.0321,0.0314,0.0438,0.0294,0.0292,0.029,0.0289,0,0.0414,0.0456,0.0529,0.0598,0.0615,0.0655,0.0709,0.074,0.0744,0.0743,0.0733,0.0703,0.0673,0.0634,0.051,0.0545,0.0453,0.0384,0.0376,0.034,0.0304,0.0275,0.0272,0.0273,0.0274,0.0276,0.0277,0,0.044,0.0515,0.0578,0.0604,0.0672,0.071,0.0747,0.0772,0.0808,0.0807,0.0813,0.0758,0.0737,0.0617,0.0485,0.049,0.0319,0.0306,0.0202,0.0199,0.0223,0.0225,0.0199,0.0199,0.0199,0.02,0.02,0,0.0482,0.0537,0.0599,0.0639,0.0724,0.0752,0.0828,0.0854,0.0884,0.0921,0.087,0.0866,0.0729,0.062,0.0487,0.0317,0.0314,0.0203,0.0165,0.0251,0.0258,0.0215,0.0219,0.0195,0.0196,0.0197,0.0198,0,0.0505,0.0546,0.0625,0.0705,0.0744,0.0804,0.09,0.0945,0.0963,0.1005,0.1009,0.0941,0.0802,0.0642,0.0441,0.0329,0.0163,0.0099,0.0195,0.0166,0.007,0.0079,-0.0032,-0.0034,-0.0035,-0.0036,-0.0037,0,0.052,0.0563,0.0672,0.0731,0.0777,0.0868,0.0938,0.0994,0.1036,0.1044,0.106,0.0953,0.0881,0.0586,0.0416,0.015,0.0118,0.0018,0.0054,0.0073,0.0047,0.0058,0.0068,-0.0039,-0.0039,-0.004,-0.004,0,0.0544,0.0582,0.0646,0.0771,0.0861,0.0947,0.1039,0.1078,0.1125,0.1143,0.1096,0.0958,0.0799,0.0586,0.0382,0.0193,0.0079,0.0004,0.0006,0.0039,0.0064,0.0041,0.0053,-0.0044,-0.0044,-0.0043,-0.0043,0,0.0561,0.0598,0.0687,0.0801,0.0908,0.0988,0.1039,0.1085,0.1131,0.1141,0.1118,0.0959,0.0877,0.0605,0.0415,0.0234,0.0189,0.0123,0.0117,0.012,0.0214,0.0271,0.019,0,0,0,0,0,0.0574,0.0618,0.0713,0.0825,0.0928,0.0991,0.109,0.1125,0.1173,0.115,0.1138,0.0992,0.0727,0.0615,0.0431,0.0377,0.0146,0.0153,0.0064,-0.0068,-0.0063,0.0022,0,0,0,0,0,0,0.058,0.066,0.0704,0.0825,0.0898,0.1005,0.1066,0.1101,0.1085,0.1107,0.0973,0.093,0.0675,0.0829,0.0421,0.0369,0.0282,0.0042,0.0037,-0.0071,-0.0067,-0.0063,0.0027,0,0,0,0,0]}]]